EN

Hourly Weather Bolshie Izori

Today, 30 October, Friday

Time Temperature Precipitation Wind Pressure Humidity
00:00 +8°C° 0.2 mm 3 mps 749 mmHg 90%
01:00 +8°C° 0.2 mm 3 mps 748 mmHg 90%
02:00 +8°C° 0 mm 3 mps 749 mmHg 88%
03:00 +8°C° 0.5 mm 2 mps 748 mmHg 89%
04:00 +8°C° 0.5 mm 2 mps 748 mmHg 90%
05:00 +7°C° 0.5 mm 2 mps 748 mmHg 92%
06:00 +8°C° 0.2 mm 2 mps 748 mmHg 92%
07:00 +8°C° 0.2 mm 2 mps 748 mmHg 92%
08:00 +8°C° 0 mm 2 mps 748 mmHg 92%
09:00 +8°C° 0 mm 2 mps 748 mmHg 91%
10:00 +8°C° 0 mm 2 mps 748 mmHg 90%
11:00 +8°C° 0 mm 2 mps 748 mmHg 89%
12:00 +10°C° 0 mm 1 mps 748 mmHg 89%
13:00 +10°C° 0 mm 1 mps 748 mmHg 89%
14:00 +10°C° 0 mm 1 mps 748 mmHg 87%
15:00 +10°C° 0 mm 1 mps 748 mmHg 89%
16:00 +9°C° 0 mm 1 mps 748 mmHg 91%
17:00 +9°C° 0 mm 1 mps 748 mmHg 92%
18:00 +9°C° 0.1 mm 1 mps 749 mmHg 93%
19:00 +8°C° 0.1 mm 0 mps 749 mmHg 94%
20:00 +8°C° 0.1 mm 0 mps 749 mmHg 95%
21:00 +8°C° 0.1 mm 0 mps 749 mmHg 95%
22:00 +8°C° 0.1 mm 0 mps 750 mmHg 96%
23:00 +8°C° 0.1 mm 0 mps 750 mmHg 96%

Tomorrow, 31 October, Saturday

Time Temperature Precipitation Wind Pressure Humidity
00:00 +8°C° 0.1 mm 0 mps 750 mmHg 96%
01:00 +8°C° 0.1 mm 0 mps 750 mmHg 96%
02:00 +8°C° 0.1 mm 0 mps 751 mmHg 96%
03:00 +8°C° 0 mm 0 mps 751 mmHg 96%
04:00 +9°C° 0 mm 1 mps 751 mmHg 96%
05:00 +8°C° 0 mm 1 mps 752 mmHg 96%
06:00 +8°C° 0 mm 1 mps 752 mmHg 95%
07:00 +9°C° 0 mm 1 mps 753 mmHg 94%
08:00 +9°C° 0 mm 1 mps 753 mmHg 94%
09:00 +8°C° 0 mm 2 mps 754 mmHg 92%
10:00 +8°C° 0 mm 2 mps 754 mmHg 91%
11:00 +8°C° 0 mm 2 mps 755 mmHg 89%
12:00 +9°C° 0 mm 2 mps 755 mmHg 88%
13:00 +9°C° 0 mm 2 mps 755 mmHg 87%
14:00 +9°C° 0 mm 2 mps 755 mmHg 86%
15:00 +9°C° 0 mm 2 mps 756 mmHg 87%
16:00 +9°C° 0 mm 2 mps 756 mmHg 88%
17:00 +8°C° 0 mm 2 mps 757 mmHg 89%
18:00 +8°C° 0 mm 2 mps 757 mmHg 88%
19:00 +8°C° 0 mm 2 mps 757 mmHg 87%
20:00 +8°C° 0 mm 2 mps 758 mmHg 86%
21:00 +8°C° 0 mm 2 mps 758 mmHg 86%
22:00 +9°C° 0 mm 1 mps 758 mmHg 86%
23:00 +9°C° 0 mm 1 mps 758 mmHg 87%

Day after tomorrow, 1 November, Sunday

Time Temperature Precipitation Wind Pressure Humidity
00:00 +8°C° 0 mm 1 mps 758 mmHg 88%
01:00 +8°C° 0 mm 1 mps 758 mmHg 89%
02:00 +6°C° 0 mm 2 mps 758 mmHg 90%
03:00 +5°C° 0 mm 2 mps 758 mmHg 90%
04:00 +6°C° 0 mm 1 mps 758 mmHg 91%
05:00 +5°C° 0 mm 1 mps 758 mmHg 91%
06:00 +5°C° 0 mm 1 mps 758 mmHg 90%
07:00 +5°C° 0 mm 1 mps 758 mmHg 88%
08:00 +5°C° 0 mm 1 mps 758 mmHg 87%
09:00 +6°C° 0 mm 1 mps 758 mmHg 80%
10:00 +7°C° 0 mm 1 mps 758 mmHg 74%
11:00 +8°C° 0 mm 1 mps 758 mmHg 67%
12:00 +7°C° 0 mm 2 mps 758 mmHg 66%
13:00 +7°C° 0 mm 2 mps 757 mmHg 65%
14:00 +8°C° 0 mm 2 mps 757 mmHg 64%
15:00 +6°C° 0 mm 2 mps 757 mmHg 70%
16:00 +5°C° 0 mm 2 mps 757 mmHg 75%
17:00 +4°C° 0 mm 2 mps 757 mmHg 81%
18:00 +4°C° 0 mm 2 mps 757 mmHg 81%
19:00 +3°C° 0 mm 2 mps 756 mmHg 82%
20:00 +3°C° 0 mm 2 mps 756 mmHg 82%
21:00 +3°C° 0 mm 2 mps 756 mmHg 84%
22:00 +2°C° 0 mm 2 mps 756 mmHg 85%
23:00 +2°C° 0 mm 2 mps 755 mmHg 87%

2 November, Monday

Time Temperature Precipitation Wind Pressure Humidity
00:00 +2°C° 0 mm 2 mps 755 mmHg 88%
01:00 +1°C° 0 mm 2 mps 755 mmHg 90%
02:00 +1°C° 0 mm 2 mps 755 mmHg 92%
03:00 +1°C° 0 mm 2 mps 755 mmHg 92%
04:00 +2°C° 0 mm 2 mps 754 mmHg 92%
05:00 +2°C° 0 mm 2 mps 754 mmHg 92%
06:00 +2°C° 0 mm 2 mps 754 mmHg 91%
07:00 +3°C° 0 mm 2 mps 754 mmHg 90%
08:00 +3°C° 0 mm 2 mps 754 mmHg 90%
09:00 +4°C° 0 mm 2 mps 753 mmHg 88%
10:00 +5°C° 0 mm 2 mps 753 mmHg 87%
11:00 +5°C° 0 mm 2 mps 753 mmHg 86%
12:00 +6°C° 0 mm 2 mps 753 mmHg 86%
13:00 +6°C° 0 mm 2 mps 753 mmHg 87%
14:00 +5°C° 0 mm 3 mps 753 mmHg 87%
15:00 +5°C° 0 mm 3 mps 753 mmHg 89%
16:00 +6°C° 0 mm 2 mps 753 mmHg 90%
17:00 +6°C° 0 mm 2 mps 753 mmHg 91%
18:00 +6°C° 0 mm 2 mps 753 mmHg 91%
19:00 +6°C° 0 mm 2 mps 753 mmHg 91%
20:00 +6°C° 0 mm 2 mps 753 mmHg 91%
21:00 +6°C° 0 mm 2 mps 753 mmHg 92%
22:00 +6°C° 0 mm 2 mps 753 mmHg 94%
23:00 +5°C° 0 mm 2 mps 753 mmHg 95%

3 November, Tuesday

Time Temperature Precipitation Wind Pressure Humidity
00:00 +5°C° 0 mm 2 mps 753 mmHg 94%
01:00 +5°C° 0 mm 3 mps 753 mmHg 94%
02:00 +5°C° 0 mm 3 mps 753 mmHg 93%
03:00 +4°C° 0 mm 3 mps 753 mmHg 94%
04:00 +4°C° 0 mm 3 mps 753 mmHg 94%
05:00 +4°C° 0 mm 3 mps 753 mmHg 95%
06:00 +4°C° 0 mm 3 mps 753 mmHg 94%
07:00 +4°C° 0 mm 3 mps 753 mmHg 94%
08:00 +4°C° 0 mm 3 mps 753 mmHg 93%
09:00 +5°C° 0 mm 4 mps 753 mmHg 89%
10:00 +6°C° 0 mm 4 mps 753 mmHg 84%
11:00 +7°C° 0 mm 5 mps 753 mmHg 79%
12:00 +8°C° 0 mm 5 mps 753 mmHg 78%
13:00 +8°C° 0 mm 5 mps 753 mmHg 78%
14:00 +8°C° 0 mm 5 mps 753 mmHg 77%
15:00 +8°C° 0.1 mm 5 mps 753 mmHg 79%
16:00 +7°C° 0.1 mm 4 mps 753 mmHg 82%
17:00 +7°C° 0.1 mm 4 mps 753 mmHg 85%
18:00 +7°C° 0.4 mm 4 mps 753 mmHg 86%
19:00 +7°C° 0.4 mm 4 mps 753 mmHg 87%
20:00 +7°C° 0.4 mm 4 mps 753 mmHg 88%
21:00 +7°C° 0.2 mm 4 mps 753 mmHg 89%
22:00 +7°C° 0.2 mm 4 mps 754 mmHg 91%
23:00 +8°C° 0.2 mm 3 mps 754 mmHg 92%

4 November, Wednesday

Time Temperature Precipitation Wind Pressure Humidity
00:00 +8°C° 0.3 mm 3 mps 754 mmHg 93%
01:00 +8°C° 0.3 mm 2 mps 754 mmHg 94%
02:00 +8°C° 0.3 mm 2 mps 755 mmHg 96%
03:00 +8°C° 0.1 mm 2 mps 755 mmHg 96%
04:00 +7°C° 0.1 mm 2 mps 755 mmHg 96%
05:00 +8°C° 0.1 mm 1 mps 755 mmHg 97%
06:00 +7°C° 0 mm 1 mps 756 mmHg 96%
07:00 +7°C° 0 mm 1 mps 756 mmHg 94%
08:00 +6°C° 0 mm 1 mps 757 mmHg 93%
09:00 +7°C° 0 mm 1 mps 757 mmHg 89%
10:00 +8°C° 0 mm 1 mps 757 mmHg 84%
11:00 +9°C° 0 mm 1 mps 757 mmHg 79%
12:00 +9°C° 0 mm 1 mps 757 mmHg 79%
13:00 +9°C° 0 mm 1 mps 758 mmHg 79%
14:00 +10°C° 0 mm 1 mps 758 mmHg 79%
15:00 +9°C° 0 mm 1 mps 758 mmHg 83%
16:00 +8°C° 0 mm 1 mps 758 mmHg 87%
17:00 +7°C° 0 mm 1 mps 758 mmHg 90%
18:00 +7°C° 0 mm 1 mps 758 mmHg 91%
19:00 +6°C° 0 mm 2 mps 759 mmHg 91%
20:00 +6°C° 0 mm 2 mps 759 mmHg 91%
21:00 +6°C° 0 mm 2 mps 759 mmHg 91%
22:00 +7°C° 0 mm 1 mps 759 mmHg 92%
23:00 +7°C° 0 mm 1 mps 759 mmHg 93%
Show more